Regional Weather Roundup
Issued by NWS Little Rock, AR

Home | Current Version | Previous Version | Text Only | Print | Product List | Glossary On
Versions: 1 2 3 4 5 6 7 8 9 10 11 12 13 14 15 16 17 18 19 20 21 22 23 24 25 26 27 28 29 30 31
000
ASUS44 KLZK 111605
RWRLZK

WEATHER ROUNDUP FOR ARKANSAS
NATIONAL WEATHER SERVICE LITTLE ROCK AR
1000 AM CST MON DEC 11 2017

NOTE: "FAIR" INDICATES FEW OR NO CLOUDS BELOW 12,000 FEET WITH NO
SIGNIFICANT WEATHER AND/OR OBSTRUCTIONS TO VISIBILITY.

ARZ001-003-010-029-111700-
NORTHWEST ARKANSAS

CITY           SKY/WX    TMP DP  RH WIND       PRES   REMARKS
FAYETTEVILLE   SUNNY     60  18  19 SW13      30.12F
FORT SMITH     SUNNY     49  31  49 CALM      30.16F
HARRISON       SUNNY     63  13  14 W14G26    30.06F
BENTONVILLE    SUNNY     53  25  33 SW10      30.11F
ROGERS         SUNNY     54  24  31 SW12      30.09F
SILOAM SPGS    SUNNY     54  22  28 SW12      30.12F
HIGHFILL       SUNNY     53  22  29 SW13      30.10F
SPRINGDALE     SUNNY     57  18  21 SW9G21    30.12F
$$

ARZ004-005-016-111700-
NORTH CENTRAL ARKANSAS

CITY           SKY/WX    TMP DP  RH WIND       PRES   REMARKS
BATESVILLE     SUNNY     59  27  29 SW10      30.09F
FLIPPIN        SUNNY     49  29  46 SE3       30.06F
MTN HOME       SUNNY     57  23  26 VRB6      30.05F
$$

ARZ040-041-111700-
WEST CENTRAL ARKANSAS

CITY           SKY/WX    TMP DP  RH WIND       PRES   REMARKS
MENA           SUNNY     63  21  20 W9        30.18S
MOUNT IDA      SUNNY     54  33  45 CALM      30.14S
$$

ARZ009-017-025-026-028-111700-
NORTHEAST ARKANSAS

CITY           SKY/WX    TMP DP  RH WIND       PRES   REMARKS
JONESBORO      SUNNY     51  32  48 SW7       30.10F
NEWPORT        SUNNY     50  37  61 S8        30.11F
WALNUT RIDGE   SUNNY     49  34  56 S9        30.08F
BLYTHEVILLE    SUNNY     50  34  54 SW10      30.12S
NW BLYTHEVILLE SUNNY     48  36  61 SW12      30.12S
$$

ARZ022-023-033-042-044-111700-
CENTRAL ARKANSAS

CITY           SKY/WX    TMP DP  RH WIND       PRES   REMARKS
LITTLE ROCK    SUNNY     54  29  38 SW8       30.15F
N LITTLE ROCK    N/A     60  28  30 SW6       30.16F
JACKSONVILLE   SUNNY     55  28  36 SW3       30.13F
SEARCY         SUNNY     55  32  41 SW5       30.13F
HOT SPRINGS    SUNNY     52  31  44 NW3       30.17S
RUSSELLVILLE   SUNNY     48  29  47 NW5       30.15S
CLINTON        FAIR      41  30  65 CALM      30.13F
$$

ARZ036-111700-
EAST ARKANSAS

CITY           SKY/WX    TMP DP  RH WIND       PRES   REMARKS
WEST MEMPHIS   SUNNY     49  34  56 SW7       30.14S
$$

ARZ050-053-066-070-073-111700-
SOUTHWEST ARKANSAS

CITY           SKY/WX    TMP DP  RH WIND       PRES   REMARKS
ARKADELPHIA    FAIR      52  33  48 VRB3      30.20S
CAMDEN         SUNNY     55  28  35 SW3       30.20F
TEXARKANA      SUNNY     55  29  36 SW7       30.21F
EL DORADO      SUNNY     54  35  48 SW7       30.22S
DE QUEEN       SUNNY     45  32  60 W5        30.19F
$$

ARZ056-057-069-111700-
SOUTHEAST ARKANSAS

CITY           SKY/WX    TMP DP  RH WIND       PRES   REMARKS
PINE BLUFF     SUNNY     54  31  41 SW6       30.17F
STUTTGART      SUNNY     54  33  45 S6        30.16S
MONTICELLO     SUNNY     56  30  37 W6        30.20S

$$






USA.gov is the U.S. government's official web portal to all federal, state and local government web resources and services.